Regional Weather Roundup
Issued by NWS

Home | Current Version | Previous Version | Text Only | Print | Product List | Glossary Off
Versions: 1 2 3 4 5 6 7 8 9 10 11 12 13 14 15 16 17 18 19 20 21 22 23 24 25 26 27 28 29 30 31 32 33 34 35 36 37 38 39 40 41 42 43 44 45 46 47 48 49 50

000
ASUS43 KDTX 211410
RWRMI
MICHIGAN HOURLY REGIONAL WEATHER ROUNDUP
NATIONAL WEATHER SERVICE DETROIT/PONTIAC MI
900 AM EST SUN JAN 21 2018

NOTE: "FAIR" INDICATES FEW OR NO CLOUDS BELOW 12,000 FEET WITH NO
SIGNIFICANT WEATHER AND/OR OBSTRUCTION TO VISIBILITY.

MIZ047>049-052>055-059>063-066>070-074>076-081>083-211500-
SOUTHEAST LOWER MICHIGAN

CITY           SKY/WX    TMP DP  RH WIND       PRES   REMARKS
ADRIAN         FOG       34  34 100 CALM      30.05S VSB 1/4
ALMA           CLOUDY    33  33 100 S3        30.03R FOG
ANN ARBOR      FOG       35  35 100 CALM      30.04F VSB 1/4
BAD AXE        FOG       32  32  99 CALM      30.05R VSB 1/2
CARO           CLOUDY    33  32  96 CALM      30.03S FOG
DETROIT CITY   FOG       36  36 100 S3        30.07S VSB 1
DETROIT        FOG       37  36  96 CALM      30.06F VSB 1/16
FLINT          CLOUDY    35  33  92 S7        30.05S FOG     WCI  29
GROSSE ILE     FOG       35  34  98 CALM      30.05F VSB<1/4
HILLSDALE      FOG       34  34 100 S5        30.02R VSB<1/4 WCI  30
HOWELL         FOG       35  35 100 SE5       30.03S VSB 1   WCI  31

CITY           SKY/WX    TMP DP  RH WIND       PRES   REMARKS
JACKSON        FOG       36  35  96 N3        30.02S VSB 1
LAMBERTVILLE   FOG       37  36  96 S3        30.06F VSB 1/4
LANSING        CLOUDY    35  35 100 CALM      30.04R FOG
LAPEER         CLOUDY    35  34  96 CALM      30.04F FOG
MONROE         FOG       36  34  93 S6        30.07R VSB 1/2 WCI  31
MT. CLEMENS    CLOUDY    35  33  93 S5        30.05F FOG     WCI  31
PONTIAC        DRIZZLE   34  34 100 CALM      30.04S FOG
PORT HOPE        N/A     33  31  92 SW7       30.03S WCI  27
PORT HURON     CLOUDY    34  32  93 S3        30.08R FOG
TRI CITIES     FOG       34  34 100 S5        30.04S VSB 1   WCI  30
MIDLAND        FOG       35  35 100 CALM      30.03S VSB<1/4
TROY           CLOUDY    37  36  96 S5        30.08S FOG     WCI  33
SAGINAW HB     CLOUDY    32  32 100 CALM      30.04S FOG
$$
MIZ043>046-050>051-056>058-064>065-071>073-077>080-211500-
SOUTHWEST LOWER MICHIGAN

CITY           SKY/WX    TMP DP  RH WIND       PRES   REMARKS
BATTLE CREEK   FOG       36  35  96 SE3       30.02S VSB 1/2
BENTON HARBOR  CLOUDY    38  35  89 S7        30.00S FOG     WCI  33
BIG RAPIDS     FOG       32  31  96 CALM      30.00R VSB<1/4
COLDWATER      FOG       37  37 100 S6        30.03R VSB 3/4 WCI  32
FREMONT        CLOUDY    35  33  95 SE3       30.00R FOG
HOLLAND        CLOUDY    37  34  89 SE5       30.00S FOG     WCI  33
GRAND RAPIDS   CLOUDY    36  34  92 E6        30.00S FOG     WCI  31
IONIA          CLOUDY    35  35 100 SE8       30.00F FOG     WCI  28
KALAMAZOO      FOG       37  35  92 S5        30.02S VSB 1   WCI  33
LUDINGTON      FOG       32  32 100 CALM      29.99S VSB<1/4
MARSHALL       FOG       35  35  97 CALM      30.03R VSB 1/2
MOUNT PLEASANT FOG       34  33  96 CALM      30.01S VSB 3/4
MUSKEGON       FOG       35  33  92 SE3       30.01R VSB 1
SOUTH HAVEN    CLOUDY    38  35  89 CALM      30.00S FOG
$$
MIZ016>042-211500-
NORTHERN LOWER MICHIGAN

CITY           SKY/WX    TMP DP  RH WIND       PRES   REMARKS
ALPENA         CLOUDY    31  30  96 CALM      30.02R
BEAVER ISLAND  CLOUDY    33  33  98 CALM      29.99R FOG
BELLAIRE       MOCLDY    31  31 100 CALM      29.99F FOG
CADILLAC       FOG       29  29  99 CALM      29.98S VSB<1/4
CHARLEVOIX     CLOUDY    35  32  90 SE3       30.01R
FRANKFORT      FOG       29  29 100 CALM      29.99S VSB 3/4
GAYLORD        CLOUDY    31  31 100 SE3       29.97S FOG
GRAYLING       CLOUDY    29  28  94 CALM      30.00S
HARBOR SPRINGS CLOUDY    32  32  99 E5        29.99S FOG     WCI  27
HOUGHTON LAKE  FAIR      26  25  96 CALM      30.00S FOG
MANISTEE       MIX PCPN  31  30  96 E6        30.00S VSB<1/4 WCI  25
OSCODA         FAIR      29  28  98 S5        30.02S FOG     WCI  24
PELLSTON       CLOUDY    31  30  96 CALM      29.99S
ROGERS CITY    CLOUDY    32  31  94 CALM      30.02S
TRAVERSE CITY  CLOUDY    34  30  85 S6        29.98F FOG     WCI  29
$$
MIZ007>008-015-211500-
EASTERN UPPER MICHIGAN

CITY           SKY/WX    TMP DP  RH WIND       PRES   REMARKS
KINROSS        CLOUDY    29  29 100 SE5       30.00R FOG     WCI  24
MACKINAC ISLAN CLOUDY    34  31  90 CALM      30.00R
NEWBERRY       FOG       31  31  97 SE3       29.98R VSB<1/4
S. S. MARIE    CLOUDY    31  28  89 E3        30.01R
MUNISING         N/A     30  29  96 S5        29.97R WCI  25
$$
MIZ004>006-011>014-085-211500-
CENTRAL UPPER MICHIGAN

CITY           SKY/WX    TMP DP  RH WIND       PRES   REMARKS
ESCANABA       CLOUDY    29  28  96 CALM      29.97S FOG
MENOMINEE      CLOUDY    31  29  92 CALM      29.98R FOG
SAWYER-GWINN   CLOUDY    34  30  86 CALM      29.95R
$$
MIZ001>003-009>011-084-211500-
WESTERN UPPER MICHIGAN

CITY           SKY/WX    TMP DP  RH WIND       PRES   REMARKS
IRON MOUNTAIN  CLOUDY    30  26  85 N3        29.94S
HOUGHTON       FAIR      27  24  89 NW5       29.95R WCI  22
COPPER HARBOR    N/A     29  28  96 SW5       29.97R WCI  24
IRONWOOD       FAIR      25  25 100 CALM      29.96F FOG
$$

ABBREVIATIONS USED IN REMARKS
   TC - TEMPERATURE IN CELSIUS
  WCI - WIND CHILL INDEX
   HX - HEAT INDEX
  VSB - VISIBILITY





USA.gov is the U.S. government's official web portal to all federal, state and local government web resources and services.